Погода Пограничное

Погода Пограничное : погода сейчас, прогноз погоды и архив. Всё, что Вы хотите узнать о погоде Пограничное!

Хотите узнать прогноз погоды Пограничное? Тогда Вам сюда: Погода Пограничное

Поиск расширенной информации на нашем сайте:

Другие новости

Новости СМИ2

Главная страница сайта

Новости сайта

02.10.2013

Напоминаем, что на нашем новом сайте вы можете получить высокодетализированные прогнозы погоды по пунктам России, СНГ и мира (включающие важные для авиации метеовеличины, такие как направление и скорость ветра, видимость, явления погоды, количество и форма облачности, нижняя и верхняя граница облачности), а также ознакомиться с разнообразными материалами по авиационной метеорологии и подборкой полезных ссылок на эту тему.

Сайт Метеоцентр.Азия посвящён разработке технологий оптимизации авиаметеорологического обслуживания, включая проектирование и перспективное создание нескольких автоматизированных авиаметеорологических систем:
- система выпуска высокодетальных прогностических карт явлений погоды для нижнего воздушного пространства по России и ближнему зарубежью;
- система верификации прогнозов TAF (выпускаемых синоптиками официальных АМСГ РФ и ближнего зарубежья) и AUTOTAF (выпускаемых сайтом Метеоцентр.Азия) - выявление ошибок, онлайн-сопоставление с фактической погодой METAR, автоматическое внесение коррективов в прогнозы при резком отклонении фактической погоды от прогноза, подсчёт оправдываемости прогнозов по элементам и в целом;
- система обработки, анализа и отображения авиаметеорологической информации для применения провайдерами метеорологической информации.

Рекомендуем: ремонт стиральной машины бош макс

Погода Пограничное - сегодня

Время (UTC), дата Ветер
(°,м/с) 
Видим.   Явления Облачность Т
(°С)
Тd
(°С)
f(%) Тe
(°С)
Pmin
(гПа)
dP
(гПа)
Po
(мм)
O2
(г/м3)
Тmin Tmax R s Состояние
почвы
18 25.06.17 010 (С) 1-3{05}  0500 м  туман  ?/?  
+4.3 +4.1 99 +5  1010.9  -0.9  757  300           
21 25.06.17 340 (С) 2-4{05}  2000 м  слаб. дождь{туман}  10/10 300 м 
[Ns]
+5.3 +5.1 99 +5  1010.6  -0.3  757  298  +4.1    0.7    мокрая 
00 26.06.17 360 (С) 3-7{08}  2000 м  дымка{дождь, туман}  10/10 200 м 
[St]
+6 +5.5 97 +5  1009.9  -0.7  757  297           
03 26.06.17 350 (С) 3-8{09}  4000 м  слаб. морось  10/10 100 м 
[St]
+6.8 +6.2 96 +6  1008.8  -1  756  296           
06 26.06.17 350 (С) 4-8{11}  4000 м  слаб. морось  10/10 200 м 
[St]
+7.2 +6.6 96 +6  1008.6  -0.2  756  296           
09 26.06.17 350 (С) 3-8{10}  4000 м  дождь{морось}  10/10 300 м 
[Frnb|Ns]
+6.6 +6.1 97 +6  1008.6  -0.1  756  296    +7.2     
12 26.06.17 350 (С) 4-10{10}  4000 м  дымка{дождь, морось}  10/10 300 м 
[Ns]
+6.8 +6.2 96 +5  1008.8  0.3  756  296           
15 26.06.17 350 (С) 3-9{10}  4000 м  морось  10/10 300 м 
[St]
+6.5 +6 97 +6  1009.2  0.4  756  297           
18 26.06.17 010 (С) 2-6{09}  1000 м  дымка{морось}  10/10 300 м 
[St]
+6.5 +6 97 +6  1009.3  0.1  756  297           
21 26.06.17 010 (С) 2-3{06}  4000 м  слаб. морось  10/10 300 м 
[St]
+6.6 +6.1 97 +6  1010.5  1.2  757  297  +6.1      влажная 
00 27.06.17 360 (С) 2-6{07}  4000 м  слаб. морось  10/10 300 м 
[St]
+6.9 +6.4 97 +7  1011.7  1.2  758  297           
03 27.06.17 020 (С) 2-6{06}  4000 м  дымка{морось}  10/10 300 м 
[St]
+7.7 +7.1 96 +8  1012  0.4  758  296           
06 27.06.17 360 (С) 2-6{06}  10 км  дымка  10/10 300 м 
[St]
+7.8 +7 95 +8  1012.5  0.4  759  296           
09 27.06.17 350 (С) 2-3{06}  20000 м    10/10 300 м 
[Sc]
+8.3 +7.1 92 +8  1013.2  0.8  759  296    +8.4  0.4     
12 27.06.17 тихо () {03}  4000 м  дымка  10/10 300 м 
[St]
+7 +6.4 96 +7  1013.6  0.3  759  297           
15 27.06.17 тихо () {02}  0500 м  туман  ?/?  
+7.1 +6.8 98 +7  1013.1  -0.4  759  297           
18 27.06.17 тихо () {02}  0200 м  туман  ?/?  
+5.7 +5.4 98 +6  1012.3  -0.8  758  298           
21 27.06.17 140 (ЮВ) 2-4{05}  0200 м  туман  ?/?  
+6.1 +5.9 99 +6  1012.4  0.1  758  298  +5.1        влажная 
00 28.06.17 140 (ЮВ) 5-7{08}  4000 м  дымка{туман}  3/1 600 м верхняя 
[Sc|Ci fib]
+7.2 +6.4 95 +5  1011.8  -0.5  758  297           
03 28.06.17 130 (ЮВ) 3-6{08}  20000 м    3/1 600 м верхняя 
[Sc|Ci fib]
+9 +7.1 88 +8  1010.9  -0.9  757  294           
06 28.06.17 080 (В) 3-4{06}  20000 м    3/1 600 м верхняя 
[Sc|Ci fib]
+9.3 +7.1 86 +9  1010.1  -0.8  757  294           
09 28.06.17 060 (СВ) 1-2{04}  20000 м    1/1 600 м 
[Sc]
+9.2 +7.3 88 +10  1008.9  -1.2  756  293    +9.6       
12 28.06.17 тихо () {03}  20000 м    3/0 верхняя 
[Ci sp]
+6.8 +6.1 95 +7  1008.9  -0.1  756  296           
15 28.06.17 270 (З) 1-2{02}  20000 м    ясно 
+5.8 +5.4 97 +7  1008.5  -0.3  756  297           
18 28.06.17 290 (З) 1-2{04}  20000 м    ясно 
+5.2 +4.8 97 +6  1008.4  0.1  756  298           
Время (UTC), дата Ветер
(°,м/с) 
Видим.   Явления Облачность Т
(°С)
Тd
(°С)
f(%) Тe
(°С)
Pmin
(гПа)
dP
(гПа)
Po
(мм)
O2
(г/м3)
Тmin Tmax R s Состояние
почвы

Для получения пояснительной информации подведите курсор к названию столбца.

ПОГОДА Пограничное - архив

Всё, что Вы хотите узнать о погоде Пограничное - удобно и подробно!

Выберите нужную дату (начиная с 1 января 2015* года) и нажмите кнопку "Найти".
Будут отображены архивные сводки погоды по пункту Пограничное, начиная с указанной даты.


Отображать данные в формате CSV (для использования в таблицах Excel)


Внимание! Наш архив погоды предназначен исключительно для личного некоммерческого использования в познавательных целях. Если Вам необходимы официальные справки о состоянии погоды (для производственных, юридических, коммерческих и т.п. целей), обращайтесь в органы Росгидромета.

*Примечание: данная дата относится к архиву по метеостанциям СССР (Россия, СНГ, Балтия).
Архив по метеостанциям Зарубежной Европы и Азии (кроме Китая) хранится 10 дней, по другим регионам земного шара (Китай, Африка, Америка, Австралия, Океания) - 1 день.

Пограничное - район местоположения метеостанции


Название, широта, долгота, высота метеостанции:
Пограничное 50.4°ш. 143.8°д. 8 м над ур. моря [Российская Федерация]

Дополнительная информация

В oтличие oт бoльшинства пoгoдных сайтoв мы публикуем пoдрoбную метеoинфoрмацию в детальнoм прoфессиoнальнoм фoрмате.

Характеристики температуры и влажнoсти вoздуха измеряются на высoте 2 м в тени вдали oт зданий и деревьев.
Скoрoсть ветра измеряется на высoте 10 м (на урoвне рoста челoвека скoрoсть ветра ниже в 1.5-2 раза). Если метеoстанция нахoдится в гoрoде или в лесу, тo скoрoсть ветра занижена на 2-4 м/с пo сравнению с oткрытым местoм. Скoрoсть ветра над акватoриями крупных рек и oзёр, а также на вершинах хoлмoв на 2-5 м/с выше, чем в oбычных услoвиях.
Атмoсфернoе давление в разных тoчках местнoсти мoжет значительнo oтличаться oт давления на метеoстанции, в зависимoсти oт услoвий рельефа (при пoдъёме на 10 м давление пoнижается примернo на 1 мм рт.ст.).